Voltar ao catálogo

MOBIUS-1

AtivoCiênciaSSO
NORAD 64554·PAYLOAD·🇺🇸 United States

Lançado Jun 23, 2025 de Vandenberg Space Force Base

Loading…

Próximas Passagens (próximas 24 horas)

TLE

AtualizadoSource: Space-Track

Época: Sep 14, 2026, 13:39 UTC

1 64554U 25135AC  26257.56904467  .00017981  00000-0  55047-3 0  9993
2 64554  97.4716  15.4610 0001419  22.7176 337.4129 15.33879825 68696

Acompanhe MOBIUS-1 em tempo real com AllMySat

Download on the App Store